Weather History for Two Harbors, MN

Change the Weather History Date:

Friday, September 28, 2012

  Actual Average Record
Temperature  
Mean Temperature 53 °F -  
Max Temperature 69 °F 60 °F 78 °F (1952)
Min Temperature 37 °F 41 °F 27 °F (1961)
Degree Days  
Heating Degree Days 12    
Growing Degree Days 3 (Base 50)    
Moisture  
Dew Point 37 °F    
Average Humidity 56    
Maximum Humidity 81    
Minimum Humidity 31    
Precipitation  
Precipitation 0.00 in - - ()
Sea Level Pressure  
Sea Level Pressure 30.12 in    
Wind  
Wind Speed 3 mph (WSW)    
Max Wind Speed 10 mph    
Max Gust Speed -    
Visibility 10 miles    
Events      
Averages and records for this station are not official NWS values.
T = Trace of Precipitation, MM = Missing Value Source: NWS Daily Summary

Daily Weather History Graph

Daily Weather History Graph

Search for Another Location

Airport:

Trip Planner

Search our weather history database for the weather conditions in past years. The results will help you decide how hot, cold, wet, or windy it might be!

Date:

Astronomy

Sep. 28, 2012 Rise Set
Actual Time 7:02 AM CDT 6:51 PM CDT
Civil Twilight 6:32 AM CDT 7:21 PM CDT
Nautical Twilight 5:56 AM CDT 7:57 PM CDT
Astronomical Twilight 5:20 AM CDT 8:33 PM CDT
Moon 5:54 PM CDT (9/28) 5:30 AM CDT (9/28)
Length of Visible Light 12h 49m
Length of Day
11h 49m
Waxing Gibbous, 98% of the Moon is Illuminated
Sep 28
Waxing Gibbous
Sep 29
Full
Oct 8
Last Quarter
Oct 15
New
Oct 21
First Quarter

Hourly Weather History & Observations

Time (CDT) Temp. Windchill Dew Point Humidity Pressure Visibility Wind Dir Wind Speed Gust Speed Precip Events Conditions
12:12 AM 39.2 °F - 32.0 °F 75% 30.16 in 10.0 mi Calm Calm - N/A   Clear
12:31 AM 44.6 °F 43.1 °F 33.8 °F 66% 30.16 in 10.0 mi West 3.5 mph - N/A   Clear
12:51 AM 44.6 °F 43.1 °F 33.8 °F 66% 30.15 in 10.0 mi West 3.5 mph - N/A   Clear
1:12 AM 41.0 °F - 33.8 °F 76% 30.16 in 10.0 mi Calm Calm - N/A   Clear
1:51 AM 42.8 °F - 33.8 °F 70% 30.16 in 10.0 mi Calm Calm - N/A   Clear
2:12 AM 37.4 °F 34.9 °F 32.0 °F 81% 30.17 in 10.0 mi NW 3.5 mph - N/A   Clear
2:31 AM 42.8 °F 40.1 °F 33.8 °F 70% 30.17 in 10.0 mi NW 4.6 mph - N/A   Clear
2:52 AM 42.8 °F 40.1 °F 33.8 °F 70% 30.16 in 10.0 mi NW 4.6 mph - N/A   Clear
3:11 AM 42.8 °F 40.1 °F 33.8 °F 70% 30.16 in 10.0 mi NW 4.6 mph - N/A   Clear
3:32 AM 42.8 °F - 33.8 °F 70% 30.16 in 10.0 mi Calm Calm - N/A   Clear
3:51 AM 41.0 °F - 33.8 °F 76% 30.16 in 10.0 mi Calm Calm - N/A   Clear
4:11 AM 42.8 °F 41.1 °F 33.8 °F 70% 30.16 in 10.0 mi WNW 3.5 mph - N/A   Clear
4:32 AM 42.8 °F 41.1 °F 32.0 °F 66% 30.16 in 10.0 mi NW 3.5 mph - N/A   Clear
5:11 AM 42.8 °F 41.1 °F 32.0 °F 66% 30.16 in 10.0 mi NW 3.5 mph - N/A   Clear
5:32 AM 44.6 °F - 33.8 °F 66% 30.15 in 10.0 mi Calm Calm - N/A   Clear
5:52 AM 39.2 °F - 30.2 °F 70% 30.16 in 10.0 mi Calm Calm - N/A   Clear
6:11 AM 41.0 °F 39.0 °F 32.0 °F 70% 30.16 in 10.0 mi WSW 3.5 mph - N/A   Clear
6:32 AM 37.4 °F - 30.2 °F 75% 30.16 in 10.0 mi Calm Calm - N/A   Clear
6:52 AM 37.4 °F - 30.2 °F 75% 30.16 in 10.0 mi Calm Calm - N/A   Clear
7:11 AM 37.4 °F - 30.2 °F 75% 30.16 in 10.0 mi Calm Calm - N/A   Clear
7:32 AM 37.4 °F - 32.0 °F 81% 30.16 in 10.0 mi Calm Calm - N/A   Clear
7:51 AM 37.4 °F - 30.2 °F 75% 30.16 in 10.0 mi Calm Calm - N/A   Clear
8:11 AM 41.0 °F - 33.8 °F 76% 30.16 in 10.0 mi Calm Calm - N/A   Clear
8:32 AM 42.8 °F - 37.4 °F 81% 30.16 in 10.0 mi Calm Calm - N/A   Clear
8:51 AM 46.4 °F - 39.2 °F 76% 30.16 in 10.0 mi Calm Calm - N/A   Clear
9:11 AM 51.8 °F - 39.2 °F 62% 30.17 in 10.0 mi Calm Calm - N/A   Clear
9:32 AM 57.2 °F - 37.4 °F 48% 30.16 in - Calm Calm - N/A   Clear
9:51 AM 59.0 °F - 37.4 °F 45% 30.16 in 10.0 mi West 3.5 mph - N/A   Clear
10:11 AM 60.8 °F - 37.4 °F 42% 30.17 in 10.0 mi Calm Calm - N/A   Clear
10:32 AM 62.6 °F - 37.4 °F 39% 30.17 in 10.0 mi West 8.1 mph - N/A   Clear
10:51 AM 64.4 °F - 37.4 °F 37% 30.17 in 10.0 mi WSW 8.1 mph - N/A   Clear
11:12 AM 64.4 °F - 37.4 °F 37% 30.16 in 10.0 mi WSW 8.1 mph - N/A   Clear
11:32 AM 64.4 °F - 37.4 °F 37% 30.16 in 10.0 mi West 3.5 mph - N/A   Clear
11:51 AM 66.2 °F - 39.2 °F 37% 30.15 in 10.0 mi SW 8.1 mph - N/A   Clear
12:11 PM 68.0 °F - 39.2 °F 35% 30.14 in 10.0 mi WNW 5.8 mph - N/A   Clear
12:32 PM 69.8 °F - 39.2 °F 33% 30.14 in 10.0 mi West 5.8 mph - N/A   Clear
12:51 PM 69.8 °F - 37.4 °F 31% 30.13 in 10.0 mi WSW 8.1 mph - N/A   Clear
1:12 PM 69.8 °F - 37.4 °F 31% 30.13 in 10.0 mi SW 4.6 mph - N/A   Clear
1:31 PM 68.0 °F - 41.0 °F 37% 30.12 in 10.0 mi South 5.8 mph - N/A   Clear
1:51 PM 66.2 °F - 39.2 °F 37% 30.12 in 10.0 mi South 10.4 mph - N/A   Clear
2:12 PM 66.2 °F - 41.0 °F 40% 30.12 in 10.0 mi SSW 9.2 mph - N/A   Clear
2:51 PM 66.2 °F - 39.2 °F 37% 30.11 in 10.0 mi South 8.1 mph - N/A   Clear
3:12 PM 66.2 °F - 39.2 °F 37% 30.10 in 10.0 mi South 5.8 mph - N/A   Clear
3:32 PM 66.2 °F - 41.0 °F 40% 30.09 in 10.0 mi South 6.9 mph - N/A   Scattered Clouds
3:51 PM 68.0 °F - 41.0 °F 37% 30.09 in 10.0 mi South 5.8 mph - N/A   Mostly Cloudy
4:12 PM 68.0 °F - 41.0 °F 37% 30.08 in 10.0 mi South 6.9 mph - N/A   Scattered Clouds
4:31 PM 66.2 °F - 39.2 °F 37% 30.07 in 10.0 mi SSW 8.1 mph - N/A   Clear
4:52 PM 66.2 °F - 39.2 °F 37% 30.07 in 10.0 mi SSW 6.9 mph - N/A   Clear
5:12 PM 68.0 °F - 39.2 °F 35% 30.07 in 10.0 mi SSW 6.9 mph - N/A   Clear
5:31 PM 66.2 °F - 39.2 °F 37% 30.07 in 10.0 mi SSW 5.8 mph - N/A   Clear
5:51 PM 66.2 °F - 41.0 °F 40% 30.07 in 10.0 mi SSW 3.5 mph - N/A   Clear
6:11 PM 64.4 °F - 39.2 °F 40% 30.07 in 10.0 mi Calm Calm - N/A   Clear
6:31 PM 62.6 °F - 39.2 °F 42% 30.07 in 10.0 mi Calm Calm - N/A   Clear
6:51 PM 60.8 °F - 39.2 °F 45% 30.07 in 10.0 mi Calm Calm - N/A   Clear
7:11 PM 57.2 °F - 39.2 °F 51% 30.06 in 10.0 mi Calm Calm - N/A   Clear
7:52 PM 53.6 °F - 39.2 °F 58% 30.07 in 10.0 mi Calm Calm - N/A   Clear
8:11 PM 51.8 °F - 39.2 °F 62% 30.07 in 10.0 mi Calm Calm - N/A   Clear
8:31 PM 48.2 °F - 39.2 °F 71% 30.07 in 10.0 mi Calm Calm - N/A   Clear
8:52 PM 51.8 °F - 39.2 °F 62% 30.07 in 10.0 mi WNW 4.6 mph - N/A   Clear
9:11 PM 55.4 °F - 39.2 °F 54% 30.07 in 10.0 mi WNW 4.6 mph - N/A   Clear
9:31 PM 55.4 °F - 39.2 °F 54% 30.07 in 10.0 mi NW 4.6 mph - N/A   Clear
9:52 PM 53.6 °F - 37.4 °F 54% 30.07 in 10.0 mi NW 4.6 mph - N/A   Clear
10:11 PM 48.2 °F - 37.4 °F 66% 30.07 in 10.0 mi Calm Calm - N/A   Clear
10:31 PM 44.6 °F - 37.4 °F 76% 30.07 in 10.0 mi Calm Calm - N/A   Clear
10:51 PM 46.4 °F - 37.4 °F 71% 30.07 in 10.0 mi Calm Calm - N/A   Clear
11:12 PM 44.6 °F - 37.4 °F 76% 30.07 in 10.0 mi Calm Calm - N/A   Clear
11:31 PM 48.2 °F - 37.4 °F 66% 30.07 in 10.0 mi NW 3.5 mph - N/A   Clear
11:52 PM 51.8 °F - 37.4 °F 58% 30.07 in 10.0 mi NW 4.6 mph - N/A   Clear